カタログに戻る

CO-55

CUTE-1

運用中アマチュア無線SSO
NORAD 27844·PAYLOAD·🇯🇵 Japan

打ち上げ Jun 30, 2003 から Plesetsk Cosmodrome

Loading…

次のパス (今後24時間)

TLE

最新Source: Space-Track

元期: Sep 14, 2026, 11:04 UTC

1 27844U 03031E   26257.46130458  .00000192  00000-0  10189-3 0  9999
2 27844  98.6770 264.9125 0008427 289.0249  71.0017 14.24381067204387

AllMySatでCO-55をリアルタイム追跡

Download on the App Store